{"data":{"norad_id":62672,"epoch":"2026-05-25T03:58:15.890016Z","epoch_age_seconds":53975,"freshness":"FRESH","line1":"1 62672U 25009BR  26145.16546169  .00004113  00000+0  17924-3 0  9999","line2":"2 62672  97.3953 224.6174 0006020  66.4469 293.7400 15.22737114132880","mean_motion":15.22737114,"eccentricity":0.000602,"inclination_deg":97.3953,"raan_deg":224.6174,"arg_perigee_deg":66.4469,"mean_anomaly_deg":293.74,"bstar":0.00017924,"rev_number":13288,"period_min":94.56655300253,"perigee_km":493.44967158621,"apogee_km":501.72804551991,"semimajor_km":6875.7258585531,"source":"CELESTRAK","updated_at":"2026-05-25T13:38:03.165373Z"}}